#timestamp,LO_Frequency,Hit,StdDev 
1514206815.2,286047008.7,N
1514206835.9,286047004.1,N
1514206855.7,286046998.6,N
1514206875.5,286047000.1,N
1514206895.4,286047001.7,N
1514206915.2,286047001.3,N
1514206935.0,286047001.3,N
1514206935.9,286047001.3,N
1514206955.8,286047006.0,N
1514206975.6,286047002.6,N
1514206995.4,286047001.1,N
1514207015.3,286046997.8,N
1514207035.1,286046996.0,N
1514207055.8,286046998.1,N
1514207075.7,286046998.5,N
1514207095.5,286047000.3,N
1514207115.3,286046999.7,N
1514207135.2,286047008.6,N
1514207155.9,286047008.0,N
1514207175.7,286047010.6,N
1514207195.6,286047009.0,N
1514207215.4,286047007.5,N
1514207235.2,286047008.6,N
1514207255.0,286047004.7,N
1514207256.0,286047004.7,N
1514207275.8,286047006.6,N
1514207295.6,286047008.5,N
1514207315.4,286047010.7,N
1514207335.3,286047010.8,N
1514207355.1,286047013.0,N
1514207375.8,286047016.5,Y
1514207395.7,286047011.9,P
1514207415.5,286047012.1,P
1514207435.3,286047011.8,P
1514207455.2,286047013.6,Y
1514207475.0,286047001.6,P
1514207475.9,286047001.6,N
1514207495.7,286047001.2,N
1514207515.6,286047001.6,N
1514207535.4,286046997.5,N
1514207555.2,286046990.6,N
1514207575.1,286046990.9,N
1514207576.0,286046990.9,N
1514207595.8,286046991.3,N
1514207615.6,286046992.2,N
1514207635.5,286046992.7,N
1514207655.3,286046990.0,N
1514207675.1,286046986.3,N
1514207695.9,286046985.7,N
1514207715.7,286046986.4,N
1514207735.5,286046984.0,N
1514207755.3,286046980.1,N
1514207775.2,286046983.2,N
1514207795.0,286046988.4,N
1514207795.9,286046988.4,N
1514207815.7,286046986.3,N
1514207835.6,286046983.5,N
1514207855.4,286046984.5,N
1514207875.2,286046986.0,N
1514207895.1,286046987.9,N
1514207896.0,286046987.9,N
1514207915.8,286046987.9,N
1514207935.6,286046985.7,N
1514207955.5,286046985.3,N
1514207975.3,286046982.1,N
1514207995.1,286046981.2,Y
1514208015.9,286046988.5,P
1514208035.7,286046986.9,P
1514208055.5,286046990.1,P
1514208075.4,286046992.0,Y
1514208095.2,286047001.4,P
1514208115.0,286046999.8,N
1514208115.9,286046999.8,N
1514208135.8,286047002.6,N
1514208155.6,286047002.1,N
1514208175.4,286047000.3,N
1514208195.3,286047004.6,N
1514208215.1,286047007.1,N
1514208216.0,286047007.1,N
1514208235.8,286047008.1,N
1514208255.7,286047008.5,N
1514208275.5,286047009.6,N
1514208295.3,286047012.1,N
1514208315.1,286047013.0,N
1514208335.9,286047013.1,N
1514208355.7,286047014.2,N
1514208375.5,286047016.6,N
1514208395.4,286047016.7,N
1514208415.2,286047013.4,N
1514208435.0,286047010.5,N
1514208435.9,286047010.5,N
1514208455.8,286047011.3,N
1514208475.6,286047010.9,N
1514208495.4,286047009.0,N
1514208515.3,286047008.8,N
1514208535.1,286047006.6,N
1514208536.0,286047006.6,N
1514208555.8,286047009.0,N
1514208575.7,286047011.4,N
1514208595.5,286047007.8,N
1514208615.3,286047007.8,N
1514208635.2,286047012.8,N
1514208655.9,286047013.8,Y
1514208675.7,286047003.8,P
1514208695.6,286046999.9,N
1514208715.4,286046998.1,N
1514208735.2,286047000.0,N
1514208755.0,286047005.8,N
1514208755.9,286047005.8,N
1514208775.8,286047004.3,N
1514208795.6,286047003.8,N
1514208815.4,286047001.8,N
1514208835.3,286046999.3,N
1514208855.1,286046997.6,N
1514208875.8,286046995.8,N
1514208895.7,286046997.2,N
1514208915.5,286046995.5,N
1514208935.3,286046992.6,N
1514208955.2,286046986.9,Y
1514208975.9,286046985.8,P
1514208995.7,286046991.0,N
1514209015.6,286046991.3,N
1514209035.4,286046989.8,N
1514209055.2,286046991.4,N
1514209075.0,286046987.4,N
1514209076.0,286046987.4,N
1514209095.8,286046988.0,N
1514209115.6,286046986.5,Y
1514209135.5,286046992.9,P
1514209155.3,286046992.6,P
1514209175.1,286046994.1,P
1514209195.9,286046994.4,Y
1514209215.7,286047002.7,P
1514209235.5,286047001.4,N
1514209255.4,286046996.7,N
1514209275.2,286046999.0,N
1514209295.0,286046999.3,N
1514209295.9,286046999.3,N
1514209315.7,286046999.9,N
1514209335.6,286047001.1,N
1514209355.4,286047000.3,N
1514209375.2,286047004.2,N
1514209395.1,286047000.2,N
1514209396.0,286047000.2,N
1514209415.8,286047000.9,N
1514209435.6,286047001.0,N
1514209455.5,286047000.3,N
1514209475.3,286047000.9,N
1514209495.1,286047001.3,N
1514209515.9,286047005.8,N
1514209535.7,286047005.5,N
1514209555.5,286047005.3,N
1514209575.4,286047004.7,N
1514209595.2,286047005.0,N
1514209615.0,286047007.5,N
1514209615.9,286047007.5,N
1514209635.8,286047005.3,N
1514209655.6,286047004.8,N
1514209675.4,286047009.2,N
1514209695.2,286047006.9,N
1514209715.1,286047008.2,N
1514209716.0,286047008.2,N
1514209735.8,286047008.4,N
1514209755.6,286047007.3,N
1514209775.5,286047007.4,N
1514209795.3,286047008.2,N
1514209815.1,286047005.0,N
1514209835.9,286047004.7,N
1514209855.7,286047008.0,N
1514209875.5,286047011.3,Y
1514209895.4,286047004.5,P
1514209915.2,286047003.3,P
1514209935.0,286047004.5,P
1514209936.0,286047004.5,Y
1514209955.8,286047003.2,P
1514209975.6,286047004.7,P
1514209995.4,286047005.7,P
1514210015.3,286047005.5,Y
1514210035.1,286047001.7,P
1514210055.8,286046998.8,N
1514210075.7,286046999.4,N
1514210095.5,286046999.0,N
1514210115.3,286046999.5,N
1514210135.2,286046999.6,N
1514210155.9,286046997.2,N
1514210175.7,286046997.5,N
1514210195.6,286046996.2,N
1514210215.4,286046993.3,Y
1514210235.2,286046992.6,P
1514210255.1,286046989.0,P
1514210256.0,286046989.0,N
1514210275.8,286046990.1,N
1514210295.6,286046987.0,Y
1514210315.5,286046997.1,P
1514210335.3,286046996.9,N
1514210355.1,286046995.6,N
1514210375.9,286046996.0,N
1514210395.7,286046995.3,N
